User: anonymous
Location: Unspecified
(0.0000°N, 0.0000°E)
Time: 16:06:32
(UTC+00:00)
Language:

HO-68 - Orbit

View from above orbital plane
View from above orbital plane
View from above satellite
View from above satellite

Ground track
Ground track

The orbit data is extracted from the following two-line orbital elements,

1 36122U 09072B   14204.06110120 -.00000043  00000-0  00000+0 0  7876
2 36122 100.2464 254.8413 0007625 153.8352 206.3146 13.16317066221154
Epoch (UTC): 23 July 2014 01:27:59
Eccentricity: 0.0007625
inclination: 100.2464°
perigee height: 1193 km
apogee height: 1204 km
right ascension of ascending node: 254.8413°
argument of perigee: 153.8352°
revolutions per day: 13.16317066
mean anomaly at epoch: 206.3146°
orbit number at epoch: 22115

The dashed part of the orbit path shows where the satellite is in the earth's shadow,  

DLR